Погода в Беягаче

Турция     37°14′14″N   28°54′10″E
темп.,
°C
ветер,
м/с
пор.,
м/с
влажн.,
%
обл.,
%
осадки,
мм/ч
давл.,
гПа
погр.,
м
9 мая, вс
вс900:00+14с11480 0.1 101310
03:00+13ссв22500 0.1 101311
06:00+12ссв33510 0.0 101424
09:00+18ссв44501 0.0 1015754
12:00+22ссв44355 0.0 10141410
15:00+23ссв44274 0.0 10131651
18:00+22ссв55275 0.0 10131408
21:00+15св44352 0.0 101663
10 мая, пн
пн1000:00+12св33360 0.0 101733
03:00+10св33380 0.0 101633
06:00+9всв32390 0.0 101623
09:00+16св22230 0.0 1015416
12:00+22ссз22150 0.0 10131222
15:00+24ссз43150 0.0 10121680
18:00+22с43170 0.0 10111476
21:00+16ссв33290 0.0 101316
11 мая, вт
вт1100:00+14св22310 0.0 101314
03:00+12св22360 0.0 101214
06:00+11всв22410 0.0 101213
09:00+18св12270 0.0 1011484
12:00+23зсз21195 0.0 10101694
15:00+25зсз43177 0.0 10092319
18:00+23зюз54252 0.0 10091334
21:00+15ююз11431 0.0 101011
12 мая, ср
ср1200:00+14с00480 0.0 101111
03:00+13св11480 0.0 101011
06:00+12ююв11470 0.0 101010
09:00+19ююз22337 0.0 1010571
12:00+23юз44210 0.0 10091833
15:00+24юз551940 0.0 10092022
18:00+21юз432541 0.0 10101181
21:00+14ю22481 0.0 101212
13 мая, чт
чт1300:00+12ююв22550 0.0 101314
03:00+11ююв22460 0.0 101214
06:00+11юв22400 0.0 101215
09:00+19ююз23230 0.0 1012547
12:00+23ююз56200 0.0 10111680
15:00+24ююз57186 0.0 10111594
18:00+22ююз45225 0.0 10111018
21:00+14ю22465 0.0 101417